| DS18B20 | SHTC3 | ||||||
|---|---|---|---|---|---|---|---|
| ID | Date d/m/Y & Time | data1 สูง | data2 ต่ำ | data3 นอก | temp pcb | hum pcb | Time |
| 9648 | 07/04/2026 13:28:34 | 34.4  | 32.6  | 34.5  | 33.5  | 65.1  | 13:28 |
| 9647 | 07/04/2026 13:23:52 | 34.4  | 32.6  | 34.4  | 33.5  | 65.0  | 13:23 |
| 9646 | 07/04/2026 13:19:10 | 34.4  | 32.5  | 34.7  | 33.5  | 65.0  | 13:19 |
| 9645 | 07/04/2026 13:14:28 | 34.3  | 32.4  | 35.3  | 33.4  | 64.8  | 13:14 |
| 9644 | 07/04/2026 13:09:46 | 34.2  | 32.4  | 36.0  | 33.4  | 65.0  | 13:09 |
| 9643 | 07/04/2026 13:05:04 | 34.2  | 32.3  | 36.0  | 33.1  | 64.9  | 13:05 |
| 9642 | 07/04/2026 13:00:23 | 34.2  | 32.3  | 36.0  | 33.1  | 64.8  | 13:00 |
| 9641 | 07/04/2026 12:55:41 | 34.1  | 32.2  | 35.7  | 33.1  | 64.9  | 12:55 |
| 9640 | 07/04/2026 12:50:59 | 34.1  | 32.2  | 35.8  | 33.0  | 64.8  | 12:50 |
| 9639 | 07/04/2026 12:46:17 | 34.0  | 32.1  | 35.7  | 33.0  | 64.8  | 12:46 |
| 9638 | 07/04/2026 12:41:34 | 33.9  | 32.1  | 35.7  | 33.1  | 64.9  | 12:41 |
| 9637 | 07/04/2026 12:36:52 | 33.8  | 32.0  | 35.7  | 33.0  | 64.9  | 12:36 |
| 9636 | 07/04/2026 12:32:09 | 33.8  | 32.0  | 35.5  | 32.8  | 64.9  | 12:32 |
| 9635 | 07/04/2026 12:27:27 | 33.7  | 31.9  | 35.3  | 32.8  | 65.1  | 12:27 |
| 9634 | 07/04/2026 12:22:46 | 33.6  | 31.9  | 35.2  | 32.7  | 64.9  | 12:22 |
| 9633 | 07/04/2026 12:18:04 | 33.6  | 31.8  | 35.2  | 32.6  | 64.9  | 12:18 |
| 9632 | 07/04/2026 12:13:22 | 33.6  | 31.8  | 34.9  | 32.6  | 64.8  | 12:13 |
| 9631 | 07/04/2026 12:08:40 | 33.6  | 31.8  | 34.9  | 32.5  | 64.8  | 12:08 |
| 9630 | 07/04/2026 12:03:58 | 33.5  | 31.7  | 34.9  | 32.5  | 64.7  | 12:03 |
| 9629 | 07/04/2026 11:59:16 | 33.4  | 31.6  | 35.0  | 32.5  | 64.7  | 11:59 |
| 9628 | 07/04/2026 11:54:34 | 33.4  | 31.6  | 35.1  | 32.3  | 64.8  | 11:54 |
| 9627 | 07/04/2026 11:49:51 | 33.2  | 31.5  | 35.0  | 32.3  | 64.7  | 11:49 |
| 9626 | 07/04/2026 11:45:09 | 33.2  | 31.4  | 34.9  | 32.1  | 64.7  | 11:45 |
| 9625 | 07/04/2026 11:40:27 | 33.1  | 31.4  | 34.9  | 32.1  | 64.8  | 11:40 |